Regional Weather Roundup
Issued by NWS

Home | Current Version | Previous Version | Graphics & Text | Print | Product List | Glossary On
Versions: 1 2 3 4 5 6 7 8 9 10 11 12 13 14 15 16 17 18 19 20 21 22 23 24 25 26 27 28 29 30 31 32 33 34 35 36 37 38 39 40 41 42 43 44 45 46 47 48 49 50
229
ASUS43 KMKX 231510
RWRWI

WISCONSIN REGIONAL WEATHER ROUNDUP
NATIONAL WEATHER SERVICE MILWAUKEE/SULLIVAN WI
900 AM CST THU NOV 23 2017

NOTE: "FAIR" INDICATES FEW OR NO CLOUDS BELOW 12,000 FEET WITH NO
SIGNIFICANT WEATHER AND/OR OBSTRUCTIONS TO VISIBILITY.

WIZ001-002-006>008-014>016-023>028-231600-
NORTHWEST WISCONSIN

CITY           SKY/WX    TMP DP  RH WIND       PRES   REMARKS
SUPERIOR ARPT  MOSUNNY   22  20  90 SW3       29.93R
ASHLAND        SUNNY     27  19  72 SW6       29.92F WCI  20
HAYWARD        SUNNY     25  19  78 SW5       29.91F WCI  19
SIREN          CLOUDY    26  21  81 CALM      29.92F
CUMBERLAND     SUNNY     25  19  80 CALM      29.91F
RICE LAKE      SUNNY     24  21  88 CALM      29.94S
CHETEK         SUNNY     24  20  86 CALM      29.93S
LADYSMITH      SUNNY     27  20  75 S3        29.93S
EAU CLAIRE     SUNNY     25  20  81 SW3       29.94R
MENOMONIE      CLOUDY    25  21  84 CALM      29.95S
NEW RICHMOND   CLOUDY    25  20  81 CALM      29.93F
OSCEOLA        CLOUDY    23  19  86 CALM      29.96F
$$

WIZ003>005-009-010-017-018-231600-
NORTH CENTRAL WISCONSIN

CITY           SKY/WX    TMP DP  RH WIND       PRES   REMARKS
MANITOWISH WTR SUNNY     25  20  80 W7        29.88S WCI  18
ARBOR VITAE    SUNNY     29  23  79 W6        29.88R WCI  23
WOODRUFF       SUNNY     29  23  79 W6        29.88R WCI  23
RHINELANDER    PTSUNNY   27  21  78 W9        29.89R WCI  18
EAGLE RIVER    SUNNY     27  19  73 W8        29.87R WCI  18
LAND O LAKES   SUNNY     27  20  76 W6        29.88R WCI  20
PHILLIPS       CLOUDY    26  19  74 W6        29.89S WCI  20
TOMAHAWK       CLOUDY    26  19  74 CALM      29.90R
MEDFORD        SUNNY     26  19  73 SW7       29.89S WCI  19
MERRILL        SUNNY     26  21  80 W3        29.91S
$$

WIZ029-030-035-036-043>047-231600-
CENTRAL WISCONSIN

CITY           SKY/WX    TMP DP  RH WIND       PRES   REMARKS
WAUSAU         MOSUNNY   26  21  81 SW3       29.89F
MOSINEE        MOSUNNY   28  21  74 SW7       29.91F WCI  21
MARSHFIELD     SUNNY     28  18  66 SW5       29.90F WCI  23
STEVENS POINT  SUNNY     28  18  66 SW7       29.91F WCI  21
WAUPACA        SUNNY     32  22  66 S3        29.94F
WAUTOMA        NOT AVBL
WISC RAPIDS    SUNNY     31  20  63 SW6       29.93F WCI  25
CAMP DOUGLAS   SUNNY     32  18  55 SW6       29.92F WCI  27
$$

WIZ011>013-019>022-031-037>040-048>050-231600-
NORTHEAST WISCONSIN

CITY           SKY/WX    TMP DP  RH WIND       PRES   REMARKS
ANTIGO         PTSUNNY   27  19  72 W7        29.88F WCI  19
SHAWANO        PTSUNNY   33  24  70 SW5       29.92F WCI  28
OCONTO         SUNNY     32  21  64 SW7       29.92F WCI  26
STURGEON BAY   CLOUDY    33  22  63 SW9       29.93F WCI  25
GREEN BAY      SUNNY     33  24  69 SW7       29.94F WCI  27
MANITOWOC      NOT AVBL
APPLETON       SUNNY     32  19  59 SW8       29.92F WCI  25
CLINTONVILLE   SUNNY     30  19  64 SW6       29.93F WCI  24
OSHKOSH        SUNNY     33  22  63 S9        29.95F WCI  25
$$

WIZ032>034-041-042-053>061-231600-
SOUTHWEST WISCONSIN

CITY           SKY/WX    TMP DP  RH WIND       PRES   REMARKS
LA CROSSE      SUNNY     33  21  61 S6        29.95F WCI  28
SPARTA         SUNNY     31  20  64 CALM      29.94F
VIROQUA        SUNNY     31  21  66 SW5       29.93S WCI  26
BOSCOBEL       SUNNY     32  20  61 S3        29.97F
PRAIRIE DU CHI SUNNY     32  19  58 CALM      29.96F
PLATTEVILLE    SUNNY     32  23  69 SW7       29.96S WCI  26
$$

WIZ056-057-062-063-064-067-068-231600-
SOUTH CENTRAL WISCONSIN

CITY           SKY/WX    TMP DP  RH WIND       PRES   REMARKS
REEDSBURG      SUNNY     32  19  58 SW6       29.96R WCI  27
BARABOO/DELLS  SUNNY     33  19  56 SW7       29.95S WCI  27
LONE ROCK      SUNNY     33  21  61 SW3       29.97S
MINERAL POINT  SUNNY     32  23  69 SW5       29.95S WCI  27
MADISON        MOSUNNY   33  21  61 SW6       29.95F WCI  28
MIDDLETON      SUNNY     35  20  55 SW6       29.96F WCI  30
WATERTOWN      MOSUNNY   33  22  65 SW7       29.96F WCI  26
MONROE         SUNNY     32  23  69 S10       29.95F WCI  24
JANESVILLE     SUNNY     36  21  55 SW10      29.97F WCI  28
$$

WIZ051-052-058>065-066-070>072-231600-
SOUTHEAST WISCONSIN

CITY           SKY/WX    TMP DP  RH WIND       PRES   REMARKS
MILWAUKEE      MOSUNNY   36  22  56 SW13      30.00S WCI  27
WAUKESHA       CLOUDY    32  19  59 SW6       29.99S WCI  26
MILWAUKEE/TIMM CLOUDY    34  18  51 SW10G16   30.00S WCI  26
RACINE         MOSUNNY   36  21  54 SW12      30.01F WCI  28
BURLINGTON     SUNNY     36  28  72 S10       29.98F WCI  29
KENOSHA        MOSUNNY   36  21  54 SW8       30.00F WCI  30
FOND DU LAC    PTSUNNY   33  19  56 SW10      29.95F WCI  25
SHEBOYGAN      CLOUDY    34  22  61 SW8       29.97F WCI  27
WEST BEND      CLOUDY    34  19  55 SW13      29.96F WCI  25
JUNEAU         CLOUDY    32  20  62 S9        29.97F WCI  24
$$

LSZ147-162-231600-
LAKE SUPERIOR

STATION/POSITION TIME  TEMP    WIND        PRES    WAVE
                       AIR SEA DIR/SP/G            HT/PER
                 (UTC) (F)     (DEG/KT/KT) (MB)    (FT/S)
DEVILS ISLAND    1500   30     250/ 13/ 18 1012.9F
SAXON HARBOR     1440   27     200/  4/  7 1013.2R
$$

LMZ867-665-643>646-231600-
LAKE MICHIGAN

STATION/POSITION TIME  TEMP    WIND        PRES    WAVE
                       AIR SEA DIR/SP/G            HT/PER
                 (UTC) (F)     (DEG/KT/KT) (MB)    (FT/S)
N MID LAKE BUOY  1450   35 47  240/ 16/ 19 1014.2F   3/ 5
NORTHPORT PIER   1501   34     250/  3/ 14 1012.9
KEWAUNEE LAKESHO 1448   33     240/  7/ 12 1013.3F
SHEBOYGAN LAKESH 1500   34     240/ 11/ 13 1015.4F
PORT WASHINGTON  1440   35     220/  4/  7 1016.3F
MILWAUKEE LAKESH 1450   35     240/ 11/ 14   N/A
S MID LAKE BUOY  1350   39 47  240/ 17/ 19 1017.0F   4/ 5
KENOSHA   LAKESH 1500   36     220/ 10/ 14 1015.9
$$

TC  - TEMPERATURE IN CELSIUS
VSB - VISIBILITY IN STATUTE MILES
WCI - WIND CHILL INDEX
HX  - HEAT INDEX





USA.gov is the U.S. government's official web portal to all federal, state and local government web resources and services.